| time (UTC) | temp C | wind direction | speed KPH | gust KPH | rain 1hr cm | rain 24hr cm | rain mn cm | humidity % | barometer mb |
| 20260506122122 | 12 | 145 | 4.8 | 20.9 | 0.00 | 0.00 | 0.00 | 85 | 1017.1 |
| 20260506121124 | 12 | 145 | 4.8 | 20.9 | 0.00 | 0.00 | 0.00 | 84 | 1017.2 |
| 20260506120122 | 12 | 142 | 3.2 | 12.9 | 0.00 | 0.00 | 0.00 | 84 | 1017.1 |
| 20260506115124 | 12 | 136 | 3.2 | 12.9 | 0.00 | 0.00 | 0.00 | 83 | 1017.2 |
| 20260506114124 | 12 | 130 | 3.2 | 9.7 | 0.00 | 0.00 | 0.00 | 83 | 1017.1 |
| 20260506113144 | 12 | 138 | 3.2 | 12.9 | 0.00 | 0.00 | 0.00 | 84 | 1016.9 |
| 20260506112122 | 12 | 128 | 3.2 | 12.9 | 0.00 | 0.00 | 0.00 | 85 | 1016.8 |
| 20260506111122 | 12 | 128 | 4.8 | 16.1 | 0.00 | 0.00 | 0.00 | 85 | 1016.7 |
| 20260506110122 | 12 | 124 | 4.8 | 16.1 | 0.00 | 0.00 | 0.00 | 85 | 1016.7 |
| 20260506105122 | 12 | 129 | 4.8 | 16.1 | 0.00 | 0.00 | 0.00 | 85 | 1016.6 |
| 20260506104143 | 12 | 125 | 4.8 | 17.7 | 0.00 | 0.00 | 0.00 | 85 | 1016.4 |
| 20260506103122 | 12 | 121 | 4.8 | 16.1 | 0.00 | 0.00 | 0.00 | 85 | 1016.4 |
| 20260506102122 | 12 | 116 | 1.6 | 9.7 | 0.00 | 0.00 | 0.00 | 85 | 1016.3 |
| 20260506101122 | 12 | 124 | 3.2 | 12.9 | 0.00 | 0.00 | 0.00 | 84 | 1016.1 |
| 20260506100123 | 12 | 126 | 4.8 | 16.1 | 0.00 | 0.00 | 0.00 | 84 | 1016.1 |
| 20260506095122 | 12 | 115 | 4.8 | 9.7 | 0.00 | 0.00 | 0.00 | 84 | 1015.9 |
| 20260506094124 | 12 | 117 | 4.8 | 16.1 | 0.00 | 0.00 | 0.00 | 84 | 1015.8 |
| 20260506093122 | 12 | 117 | 3.2 | 12.9 | 0.00 | 0.00 | 0.00 | 84 | 1015.7 |
| 20260506092122 | 12 | 120 | 3.2 | 17.7 | 0.00 | 0.00 | 0.00 | 84 | 1015.7 |
| 20260506091122 | 12 | 122 | 4.8 | 17.7 | 0.00 | 0.00 | 0.00 | 85 | 1015.7 |
| 20260506090122 | 12 | 127 | 4.8 | 16.1 | 0.00 | 0.00 | 0.00 | 85 | 1015.6 |
| 20260506085122 | 12 | 120 | 6.4 | 20.9 | 0.00 | 0.00 | 0.00 | 85 | 1015.5 |
| 20260506084122 | 12 | 118 | 3.2 | 9.7 | 0.00 | 0.00 | 0.00 | 85 | 1015.4 |
| 20260506083122 | 13 | 118 | 3.2 | 9.7 | 0.00 | 0.00 | 0.00 | 84 | 1015.4 |
| 20260506082124 | 13 | 120 | 3.2 | 9.7 | 0.00 | 0.00 | 0.00 | 84 | 1015.5 |
| 20260506081123 | 13 | 115 | 4.8 | 16.1 | 0.00 | 0.00 | 0.00 | 84 | 1015.4 |
| 20260506080122 | 13 | 124 | 4.8 | 17.7 | 0.00 | 0.00 | 0.00 | 84 | 1015.3 |
| 20260506073122 | 13 | 125 | 6.4 | 17.7 | 0.00 | 0.00 | 0.00 | 84 | 1014.9 |
| 20260506072124 | 13 | 123 | 6.4 | 20.9 | 0.00 | 0.00 | 0.00 | 84 | 1015.0 |
| 20260506071122 | 13 | 128 | 6.4 | 17.7 | 0.00 | 0.00 | 0.00 | 84 | 1015.1 |
| 20260506070124 | 13 | 125 | 4.8 | 16.1 | 0.00 | 0.00 | 0.00 | 83 | 1014.9 |
| 20260506062122 | 14 | 119 | 1.6 | 8.0 | 0.00 | 0.00 | 0.00 | 80 | 1014.7 |
| 20260506061122 | 14 | 120 | 1.6 | 4.8 | 0.00 | 0.00 | 0.00 | 80 | 1014.6 |
| 20260506060122 | 14 | 127 | 1.6 | 8.0 | 0.00 | 0.00 | 0.00 | 80 | 1014.5 |
| 20260506051143 | 15 | 135 | 0.0 | 4.8 | 0.00 | 0.00 | 0.00 | 76 | 1014.2 |
| 20260506050122 | 15 | 137 | 0.0 | 3.2 | 0.00 | 0.00 | 0.00 | 75 | 1014.2 |
| 20260506045122 | 16 | 135 | 1.6 | 8.0 | 0.00 | 0.00 | 0.00 | 74 | 1014.1 |
| 20260506044143 | 16 | 119 | 0.0 | 4.8 | 0.00 | 0.00 | 0.00 | 74 | 1014.1 |
| 20260506043124 | 16 | 128 | 1.6 | 9.7 | 0.00 | 0.00 | 0.00 | 73 | 1014.1 |
| 20260506042143 | 16 | 102 | 0.0 | 4.8 | 0.00 | 0.00 | 0.00 | 72 | 1014.0 |
| 20260506041122 | 16 | 129 | 1.6 | 8.0 | 0.00 | 0.00 | 0.00 | 72 | 1013.9 |
| 20260506040122 | 16 | 128 | 1.6 | 4.8 | 0.00 | 0.00 | 0.00 | 71 | 1013.7 |
| 20260506035122 | 16 | 133 | 1.6 | 4.8 | 0.00 | 0.00 | 0.00 | 70 | 1013.6 |
| 20260506034122 | 16 | 132 | 3.2 | 8.0 | 0.00 | 0.00 | 0.00 | 69 | 1013.5 |
| 20260506033123 | 17 | 142 | 1.6 | 8.0 | 0.00 | 0.00 | 0.00 | 69 | 1013.4 |
| 20260506032122 | 17 | 167 | 0.0 | 4.8 | 0.00 | 0.00 | 0.00 | 68 | 1013.2 |
| 20260506031124 | 17 | 164 | 1.6 | 12.9 | 0.00 | 0.00 | 0.00 | 68 | 1013.2 |
| 20260506030122 | 17 | 246 | 1.6 | 8.0 | 0.00 | 0.00 | 0.00 | 67 | 1013.1 |
| 20260506025124 | 17 | 232 | 0.0 | 8.0 | 0.00 | 0.00 | 0.00 | 66 | 1013.1 |
| 20260506024144 | 17 | 217 | 1.6 | 12.9 | 0.00 | 0.00 | 0.00 | 66 | 1013.0 |
| 20260506023122 | 18 | 232 | 1.6 | 9.7 | 0.00 | 0.00 | 0.00 | 64 | 1012.9 |
| 20260506022145 | 18 | 262 | 3.2 | 16.1 | 0.00 | 0.00 | 0.00 | 65 | 1013.1 |
| 20260506021122 | 18 | 252 | 1.6 | 9.7 | 0.00 | 0.00 | 0.00 | 65 | 1013.1 |
| 20260506020143 | 18 | 262 | 4.8 | 17.7 | 0.00 | 0.00 | 0.00 | 65 | 1013.1 |
| 20260506015123 | 18 | 234 | 3.2 | 12.9 | 0.00 | 0.00 | 0.00 | 65 | 1013.2 |
| 20260506014122 | 18 | 224 | 4.8 | 16.1 | 0.00 | 0.00 | 0.00 | 64 | 1013.2 |
| 20260506013122 | 18 | 236 | 4.8 | 22.5 | 0.00 | 0.00 | 0.00 | 64 | 1013.1 |
| 20260506012122 | 18 | 226 | 4.8 | 20.9 | 0.00 | 0.00 | 0.00 | 63 | 1013.3 |
| 20260506011122 | 18 | 234 | 4.8 | 22.5 | 0.00 | 0.00 | 0.00 | 65 | 1013.2 |
| 20260506010122 | 18 | 234 | 6.4 | 20.9 | 0.00 | 0.00 | 0.00 | 63 | 1013.4 |
| 20260506005122 | 18 | 231 | 8.0 | 25.7 | 0.00 | 0.00 | 0.00 | 64 | 1013.3 |
| 20260506004122 | 19 | 232 | 4.8 | 20.9 | 0.00 | 0.00 | 0.00 | 62 | 1013.2 |
| 20260506003122 | 19 | 224 | 4.8 | 25.7 | 0.00 | 0.00 | 0.00 | 63 | 1013.1 |
| 20260506002122 | 19 | 228 | 4.8 | 17.7 | 0.00 | 0.00 | 0.00 | 61 | 1013.3 |
| 20260506001122 | 20 | 219 | 6.4 | 22.5 | 0.00 | 0.00 | 0.00 | 60 | 1013.3 |
| 20260506000145 | 19 | 223 | 3.2 | 16.1 | 0.00 | 0.00 | 0.00 | 62 | 1013.3 |
| 20260505235123 | 20 | 231 | 8.0 | 22.5 | 0.00 | 0.00 | 0.00 | 61 | 1013.4 |
| 20260505234122 | 20 | 243 | 3.2 | 16.1 | 0.00 | 0.00 | 0.00 | 63 | 1013.4 |
| 20260505233145 | 20 | 228 | 4.8 | 16.1 | 0.00 | 0.00 | 0.00 | 62 | 1013.5 |
| 20260505232122 | 19 | 270 | 4.8 | 20.9 | 0.00 | 0.00 | 0.00 | 63 | 1013.7 |
| 20260505231143 | 19 | 238 | 4.8 | 20.9 | 0.00 | 0.00 | 0.00 | 63 | 1013.8 |
| 20260505230124 | 19 | 263 | 4.8 | 17.7 | 0.00 | 0.00 | 0.00 | 63 | 1014.0 |
| 20260505225145 | 19 | 231 | 4.8 | 20.9 | 0.00 | 0.00 | 0.00 | 62 | 1014.1 |
| 20260505224122 | 20 | 252 | 3.2 | 20.9 | 0.00 | 0.00 | 0.00 | 62 | 1014.0 |
| 20260505223122 | 19 | 255 | 4.8 | 30.6 | 0.00 | 0.00 | 0.00 | 61 | 1014.1 |
| 20260505222122 | 19 | 276 | 6.4 | 17.7 | 0.00 | 0.00 | 0.00 | 62 | 1014.2 |
| 20260505221124 | 19 | 242 | 4.8 | 20.9 | 0.00 | 0.00 | 0.00 | 62 | 1014.2 |
| 20260505220124 | 19 | 261 | 6.4 | 22.5 | 0.00 | 0.00 | 0.00 | 63 | 1014.3 |
| 20260505215122 | 19 | 256 | 4.8 | 22.5 | 0.00 | 0.00 | 0.00 | 63 | 1014.2 |
| 20260505214124 | 19 | 278 | 6.4 | 25.7 | 0.00 | 0.00 | 0.00 | 63 | 1014.3 |
| 20260505213124 | 19 | 254 | 4.8 | 17.7 | 0.00 | 0.00 | 0.00 | 63 | 1014.3 |
| 20260505212122 | 19 | 269 | 4.8 | 20.9 | 0.00 | 0.00 | 0.00 | 65 | 1014.4 |
| 20260505211122 | 18 | 297 | 8.0 | 30.6 | 0.00 | 0.00 | 0.00 | 64 | 1014.4 |
| 20260505210122 | 18 | 286 | 4.8 | 22.5 | 0.00 | 0.00 | 0.00 | 65 | 1014.5 |
| 20260505205124 | 18 | 285 | 4.8 | 22.5 | 0.00 | 0.00 | 0.00 | 64 | 1014.6 |
| 20260505204124 | 19 | 253 | 4.8 | 22.5 | 0.00 | 0.00 | 0.00 | 64 | 1014.7 |
| 20260505203124 | 18 | 237 | 4.8 | 17.7 | 0.00 | 0.00 | 0.00 | 64 | 1014.7 |
| 20260505202122 | 18 | 161 | 4.8 | 20.9 | 0.00 | 0.00 | 0.00 | 66 | 1014.7 |
| 20260505201144 | 18 | 233 | 6.4 | 29.0 | 0.00 | 0.00 | 0.00 | 66 | 1014.8 |
| 20260505200123 | 18 | 243 | 3.2 | 16.1 | 0.00 | 0.00 | 0.00 | 68 | 1014.8 |
| 20260505195124 | 17 | 231 | 6.4 | 30.6 | 0.00 | 0.00 | 0.00 | 68 | 1014.8 |
| 20260505194122 | 17 | 238 | 4.8 | 25.7 | 0.00 | 0.00 | 0.00 | 69 | 1014.9 |
| 20260505193143 | 17 | 225 | 6.4 | 25.7 | 0.00 | 0.00 | 0.00 | 69 | 1014.8 |
| 20260505192122 | 17 | 234 | 4.8 | 20.9 | 0.00 | 0.00 | 0.00 | 69 | 1015.0 |
| 20260505191122 | 16 | 268 | 4.8 | 22.5 | 0.00 | 0.00 | 0.00 | 70 | 1015.0 |
| 20260505190143 | 16 | 220 | 8.0 | 22.5 | 0.00 | 0.00 | 0.00 | 73 | 1014.9 |
| 20260505185124 | 16 | 224 | 9.7 | 30.6 | 0.00 | 0.00 | 0.00 | 74 | 1015.0 |
| 20260505184123 | 16 | 231 | 9.7 | 30.6 | 0.00 | 0.00 | 0.00 | 74 | 1015.1 |
| 20260505183143 | 16 | 243 | 6.4 | 22.5 | 0.00 | 0.00 | 0.00 | 73 | 1015.0 |
| 20260505182124 | 16 | 223 | 4.8 | 22.5 | 0.00 | 0.00 | 0.00 | 74 | 1014.9 |
| 20260505181122 | 16 | 240 | 6.4 | 25.7 | 0.00 | 0.00 | 0.00 | 74 | 1014.8 |
| 20260505180122 | 16 | 228 | 6.4 | 17.7 | 0.00 | 0.00 | 0.00 | 73 | 1014.7 |
| 20260505175122 | 16 | 268 | 4.8 | 17.7 | 0.00 | 0.00 | 0.00 | 75 | 1014.7 |
| 20260505174143 | 16 | 235 | 6.4 | 17.7 | 0.00 | 0.00 | 0.00 | 73 | 1014.8 |
| 20260505173122 | 16 | 271 | 3.2 | 16.1 | 0.00 | 0.00 | 0.00 | 73 | 1014.8 |
| 20260505172143 | 16 | 244 | 3.2 | 20.9 | 0.00 | 0.00 | 0.00 | 74 | 1014.8 |
| 20260505171122 | 16 | 247 | 1.6 | 9.7 | 0.00 | 0.00 | 0.00 | 76 | 1014.8 |
| 20260505170122 | 16 | 253 | 4.8 | 17.7 | 0.00 | 0.00 | 0.00 | 76 | 1014.9 |
| 20260505165122 | 15 | 215 | 4.8 | 20.9 | 0.00 | 0.00 | 0.00 | 77 | 1014.9 |
| 20260505164122 | 15 | 212 | 4.8 | 17.7 | 0.00 | 0.00 | 0.00 | 77 | 1014.9 |
| 20260505163124 | 15 | 211 | 3.2 | 16.1 | 0.00 | 0.00 | 0.00 | 77 | 1014.8 |
| 20260505162122 | 15 | 151 | 4.8 | 22.5 | 0.00 | 0.00 | 0.00 | 77 | 1014.8 |
| 20260505161122 | 15 | 152 | 6.4 | 20.9 | 0.00 | 0.00 | 0.00 | 77 | 1014.7 |
| 20260505160124 | 15 | 199 | 3.2 | 16.1 | 0.00 | 0.00 | 0.00 | 79 | 1014.7 |
| 20260505153124 | 15 | 160 | 4.8 | 20.9 | 0.00 | 0.00 | 0.00 | 77 | 1014.6 |
| 20260505152122 | 15 | 170 | 3.2 | 17.7 | 0.00 | 0.00 | 0.00 | 77 | 1014.6 |
| 20260505151124 | 14 | 149 | 4.8 | 20.9 | 0.00 | 0.00 | 0.00 | 78 | 1014.6 |
| 20260505150124 | 14 | 156 | 3.2 | 16.1 | 0.00 | 0.00 | 0.00 | 78 | 1014.5 |
| 20260505140122 | 13 | 133 | 1.6 | 8.0 | 0.00 | 0.00 | 0.00 | 80 | 1013.9 |
| 20260505130122 | 13 | 125 | 1.6 | 8.0 | 0.00 | 0.00 | 0.00 | 78 | 1013.1 |
| 20260505124122 | 13 | 130 | 0.0 | 4.8 | 0.00 | 0.00 | 0.00 | 78 | 1012.9 |
| 20260505123122 | 13 | 130 | 1.6 | 8.0 | 0.00 | 0.00 | 0.00 | 78 | 1012.8 |